Location: Krasnoyarskiy Pitomnik
(51.1333°N, 71.6167°E)
Time: 09:01:04
(UTC+00:00)

Cosmos 1953 Rocket - Pass Details

Date: 22 October 2021
Orbit: 603 x 635 km, 82.5° (Epoch: 05 December)

Event Time Altitude Azimuth Distance (km) Brightness Sun altitude
Rises 14:30:20 0° 352° (N) 2,949 7.3 -23.2°
Reaches altitude 10° 14:32:38 10° 356° (N) 2,035 6.4 -23.5°
Enters shadow 14:35:41 39° 18° (NNE) 955 4.4 -24.0°
